Oshkosh, WI

1:53 PM CDT on May 23, 2018 (GMT -0500)
Wittman Regional

Weather History for KOSH - December, 2012

Change the Weather History Date:

Saturday, December 15, 2012

  Actual Average Record
Temperature  
Mean Temperature 39 °F -  
Max Temperature 43 °F 31 °F 48 °F (1957)
Min Temperature 35 °F 16 °F -14 °F (1985)
Degree Days  
Heating Degree Days 26    
Moisture  
Dew Point 39 °F    
Average Humidity 90    
Maximum Humidity 100    
Minimum Humidity 81    
Precipitation  
Precipitation 0.28 in - - ()
Sea Level Pressure  
Sea Level Pressure 29.64 in    
Wind  
Wind Speed 7 mph (SE)    
Max Wind Speed 14 mph    
Max Gust Speed 22 mph    
Visibility 4 miles    
Events Rain    
Averages and records for this station are not official NWS values.
T = Trace of Precipitation, MM = Missing Value Source: NWS Daily Summary

Daily Weather History Graph

Daily Weather History Graph

Search for Another Location

Airport or City:

Astronomy

Dec. 15, 2012 Rise Set
Actual Time 7:22 AM CST 4:17 PM CST
Civil Twilight 6:49 AM CST 4:50 PM CST
Nautical Twilight 6:12 AM CST 5:26 PM CST
Astronomical Twilight 5:37 AM CST 6:01 PM CST
Moon 9:11 AM CST (12/15) 7:25 PM CST (12/15)
Length of Visible Light 10h 00m
Length of Day
8h 54m
Waxing Crescent, 8% of the Moon is Illuminated
Dec 15
Waxing Crescent
Dec 19
First Quarter
Dec 28
Full
Jan 4
Last Quarter
Jan 11
New

Hourly Weather History & Observations

Time (CST) Temp. Windchill Dew Point Humidity Pressure Visibility Wind Dir Wind Speed Gust Speed Precip Events Conditions
12:21 AM 35.6 °F 30.7 °F 33.8 °F 93% 29.99 in 3.0 mi East 5.8 mph - N/A   Overcast
12:53 AM 36.0 °F 32.1 °F 34.0 °F 93% 30.01 in 3.0 mi East 4.6 mph - N/A   Overcast
1:53 AM 36.0 °F 32.1 °F 34.0 °F 93% 29.99 in 3.0 mi East 4.6 mph - N/A   Partly Cloudy
2:53 AM 37.9 °F 32.1 °F 35.1 °F 89% 29.97 in 5.0 mi SE 8.1 mph - N/A   Clear
3:53 AM 39.0 °F 33.4 °F 35.1 °F 86% 29.94 in 6.0 mi ESE 8.1 mph - N/A   Mostly Cloudy
4:53 AM 39.9 °F 33.9 °F 36.0 °F 86% 29.93 in 7.0 mi SE 9.2 mph - N/A   Overcast
5:53 AM 41.0 °F 35.2 °F 36.0 °F 82% - 7.0 mi ESE 9.2 mph - N/A   Overcast
6:53 AM 41.0 °F 35.8 °F 36.0 °F 82% - 7.0 mi SE 8.1 mph - 0.00 in   Overcast
7:53 AM 41.0 °F 34.3 °F 36.0 °F 82% - 6.0 mi SE 11.5 mph - N/A   Haze
8:53 AM 41.0 °F 35.2 °F 37.0 °F 86% - 4.0 mi SE 9.2 mph - 0.02 in Rain Light Rain
9:53 AM 41.0 °F 35.2 °F 37.9 °F 89% 29.81 in 4.0 mi SE 9.2 mph 17.3 mph 0.02 in Rain Light Rain
10:53 AM 41.0 °F 34.7 °F 37.9 °F 89% 29.77 in 4.0 mi SE 10.4 mph - 0.09 in Rain Light Rain
11:25 AM 42.8 °F 35.8 °F 37.4 °F 81% 29.70 in 8.0 mi ESE 13.8 mph - 0.02 in   Overcast
11:53 AM 42.1 °F 35.2 °F 37.9 °F 85% 29.71 in 5.0 mi ESE 12.7 mph 19.6 mph 0.02 in Rain Light Rain
12:00 PM 42.8 °F 36.6 °F 37.4 °F 81% 29.67 in 3.0 mi ESE 11.5 mph - 0.01 in Rain Light Rain
12:12 PM 41.0 °F 33.9 °F 37.4 °F 87% 29.66 in 2.5 mi ESE 12.7 mph - 0.01 in Rain Light Rain
12:28 PM 41.0 °F 35.2 °F 39.2 °F 93% 29.65 in 2.5 mi ESE 9.2 mph - 0.02 in Rain Light Rain
12:48 PM 41.0 °F 35.8 °F 39.2 °F 93% 29.64 in 1.5 mi SE 8.1 mph - 0.03 in Rain Light Rain
12:53 PM 41.0 °F 34.7 °F 39.0 °F 93% 29.66 in 1.8 mi SE 10.4 mph - 0.03 in Rain Light Rain
1:02 PM 42.8 °F 36.6 °F 39.2 °F 87% 29.62 in 2.5 mi SE 11.5 mph - 0.00 in Rain Light Rain
1:08 PM 42.8 °F 36.2 °F 39.2 °F 87% 29.61 in 3.0 mi SE 12.7 mph - 0.01 in Rain Light Rain
1:16 PM 42.8 °F 37.0 °F 39.2 °F 87% 29.61 in 2.5 mi SE 10.4 mph - 0.01 in Rain Light Rain
1:27 PM 42.8 °F 37.0 °F 39.2 °F 87% 29.60 in 4.0 mi SE 10.4 mph 21.9 mph 0.01 in Rain Light Rain
1:53 PM 42.1 °F 35.2 °F 39.9 °F 92% 29.61 in 5.0 mi SE 12.7 mph 18.4 mph 0.03 in Rain Light Rain
2:53 PM 42.1 °F 36.6 °F 39.9 °F 92% 29.59 in 4.0 mi SE 9.2 mph - 0.01 in Rain Light Rain
3:35 PM 42.8 °F 37.5 °F 39.2 °F 87% 29.55 in 5.0 mi SE 9.2 mph - 0.01 in Rain Light Rain
3:53 PM 42.1 °F 37.1 °F 39.9 °F 92% 29.57 in 6.0 mi SE 8.1 mph - 0.02 in Rain Light Rain
4:53 PM 42.1 °F 37.7 °F 39.9 °F 92% 29.56 in 6.0 mi SSE 6.9 mph - 0.01 in Rain Light Rain
5:00 PM 42.8 °F 38.6 °F 39.2 °F 87% 29.54 in 6.0 mi SSE 6.9 mph - 0.00 in Rain Light Rain
5:14 PM 42.8 °F 38.6 °F 41.0 °F 93% 29.54 in 5.0 mi SSE 6.9 mph - 0.01 in Rain Light Rain
5:21 PM 42.8 °F 39.3 °F 41.0 °F 93% 29.54 in 5.0 mi SSE 5.8 mph - 0.01 in Rain Light Rain
5:31 PM 42.8 °F 40.1 °F 41.0 °F 93% 29.54 in 4.0 mi SSE 4.6 mph - 0.01 in Rain Light Rain
5:39 PM 42.8 °F 39.3 °F 41.0 °F 93% 29.54 in 4.0 mi SSE 5.8 mph - 0.02 in Rain Light Rain
5:53 PM 43.0 °F 41.3 °F 41.0 °F 93% 29.56 in 4.0 mi SSE 3.5 mph - 0.02 in Rain Light Rain
6:48 PM 42.8 °F 41.1 °F 41.0 °F 93% 29.53 in 3.0 mi South 3.5 mph - 0.00 in   Overcast
6:53 PM 42.1 °F 40.2 °F 41.0 °F 96% 29.55 in 3.0 mi South 3.5 mph - 0.00 in   Overcast
7:53 PM 43.0 °F 41.3 °F 41.0 °F 93% 29.55 in 3.0 mi SSE 3.5 mph - 0.01 in   Overcast
8:13 PM 42.8 °F 41.1 °F 41.0 °F 93% 29.53 in 2.5 mi South 3.5 mph - N/A   Overcast
8:27 PM 42.8 °F 40.1 °F 41.0 °F 93% 29.53 in 3.0 mi South 4.6 mph - N/A   Overcast
8:39 PM 42.8 °F 40.1 °F 41.0 °F 93% 29.53 in 2.5 mi South 4.6 mph - N/A   Overcast
8:53 PM 42.1 °F 38.4 °F 41.0 °F 96% 29.55 in 2.5 mi South 5.8 mph - N/A   Overcast
9:36 PM 42.8 °F 41.1 °F 41.0 °F 93% 29.52 in 2.5 mi SSW 3.5 mph - N/A   Overcast
9:53 PM 43.0 °F 41.3 °F 42.1 °F 97% 29.54 in 2.5 mi SSW 3.5 mph - N/A   Overcast
10:15 PM 42.8 °F - 42.8 °F 100% 29.52 in 1.8 mi Calm Calm - N/A   Overcast
10:36 PM 42.8 °F - 41.0 °F 93% 29.52 in 0.8 mi Calm Calm - N/A   Overcast
10:53 PM 43.0 °F - 41.0 °F 93% 29.54 in 0.8 mi Calm Calm - N/A   Mist
11:42 PM 42.8 °F 38.6 °F 41.0 °F 93% 29.52 in 2.0 mi SSW 6.9 mph - N/A   Overcast
11:53 PM 43.0 °F 39.5 °F 41.0 °F 93% 29.53 in 2.5 mi SSW 5.8 mph - N/A   Overcast